legislation_cosponsors
Data license: Public Domain (U.S. Government data) · Data source: Federal Register API & Regulations.gov API
41 rows where bill_id = "103-hr-4541" sorted by sponsorship_date descending
This data as json, CSV (advanced)
Suggested facets: party, state, sponsorship_date, sponsorship_date (date)
| Link | bill_id | bioguide_id | full_name | party | state | sponsorship_date ▲ | is_original_cosponsor |
|---|---|---|---|---|---|---|---|
| 103-hr-4541,H000114 | African Conflict Resolution Act 103-hr-4541 | H000114 | Rep. Hamilton, Lee H. [D-IN-9] | D | IN | 1994-08-17 | 0 |
| 103-hr-4541,B001149 | African Conflict Resolution Act 103-hr-4541 | B001149 | Rep. Burton, Dan [R-IN-6] | R | IN | 1994-08-17 | 0 |
| 103-hr-4541,A000022 | African Conflict Resolution Act 103-hr-4541 | A000022 | Rep. Ackerman, Gary L. [D-NY-5] | D | NY | 1994-08-17 | 0 |
| 103-hr-4541,H000324 | African Conflict Resolution Act 103-hr-4541 | H000324 | Rep. Hastings, Alcee L. [D-FL-23] | D | FL | 1994-08-17 | 0 |
| 103-hr-4541,E000064 | African Conflict Resolution Act 103-hr-4541 | E000064 | Rep. Edwards, Don [D-CA-16] | D | CA | 1994-08-17 | 0 |
| 103-hr-4541,E000179 | African Conflict Resolution Act 103-hr-4541 | E000179 | Rep. Engel, Eliot L. [D-NY-17] | D | NY | 1994-08-17 | 0 |
| 103-hr-4541,B000410 | African Conflict Resolution Act 103-hr-4541 | B000410 | Rep. Berman, Howard L. [D-CA-26] | D | CA | 1994-08-17 | 0 |
| 103-hr-4541,G000120 | African Conflict Resolution Act 103-hr-4541 | G000120 | Rep. Gejdenson, Sam [D-CT-2] | D | CT | 1994-08-17 | 0 |
| 103-hr-4541,L000090 | African Conflict Resolution Act 103-hr-4541 | L000090 | Rep. Lantos, Tom [D-CA-12] | D | CA | 1994-08-17 | 0 |
| 103-hr-4541,B000008 | African Conflict Resolution Act 103-hr-4541 | B000008 | Rep. Bacchus, Jim [D-FL-15] | D | FL | 1994-08-17 | 0 |
| 103-hr-4541,M000628 | African Conflict Resolution Act 103-hr-4541 | M000628 | Rep. Meek, Carrie P. [D-FL-17] | D | FL | 1994-08-17 | 0 |
| 103-hr-4541,P000215 | African Conflict Resolution Act 103-hr-4541 | P000215 | Rep. Penny, Timothy J. [D-MN-1] | D | MN | 1994-08-17 | 0 |
| 103-hr-4541,B000177 | African Conflict Resolution Act 103-hr-4541 | B000177 | Rep. Barrett, Thomas M. [D-WI-5] | D | WI | 1994-08-17 | 0 |
| 103-hr-4541,D000222 | African Conflict Resolution Act 103-hr-4541 | D000222 | Rep. Dellums, Ronald V. [D-CA-9] | D | CA | 1994-08-17 | 0 |
| 103-hr-4541,W000784 | African Conflict Resolution Act 103-hr-4541 | W000784 | Rep. Wynn, Albert Russell [D-MD-4] | D | MD | 1994-08-17 | 0 |
| 103-hr-4541,O000006 | African Conflict Resolution Act 103-hr-4541 | O000006 | Rep. Oberstar, James L. [D-MN-8] | D | MN | 1994-08-17 | 0 |
| 103-hr-4541,W000177 | African Conflict Resolution Act 103-hr-4541 | W000177 | Rep. Washington, Craig A. [D-TX-18] | D | TX | 1994-08-17 | 0 |
| 103-hr-4541,H000930 | African Conflict Resolution Act 103-hr-4541 | H000930 | Rep. Hughes, William J. [D-NJ-2] | D | NJ | 1994-08-17 | 0 |
| 103-hr-4541,M000342 | African Conflict Resolution Act 103-hr-4541 | M000342 | Rep. McCloskey, Frank [D-IN-8] | D | IN | 1994-08-17 | 0 |
| 103-hr-4541,B000911 | African Conflict Resolution Act 103-hr-4541 | B000911 | Rep. Brown, Corrine [D-FL-3] | D | FL | 1994-08-17 | 0 |
| 103-hr-4541,J000126 | African Conflict Resolution Act 103-hr-4541 | J000126 | Rep. Johnson, Eddie Bernice [D-TX-30] | D | TX | 1994-08-17 | 0 |
| 103-hr-4541,R000053 | African Conflict Resolution Act 103-hr-4541 | R000053 | Rep. Rangel, Charles B. [D-NY-15] | D | NY | 1994-08-17 | 0 |
| 103-hr-4541,D000209 | African Conflict Resolution Act 103-hr-4541 | D000209 | Del. de Lugo, Ron [D-VI-At Large] | D | VI | 1994-08-17 | 0 |
| 103-hr-4541,H000814 | African Conflict Resolution Act 103-hr-4541 | H000814 | Rep. Houghton, Amo [R-NY-31] | R | NY | 1994-08-17 | 0 |
| 103-hr-4541,H000621 | African Conflict Resolution Act 103-hr-4541 | H000621 | Rep. Hilliard, Earl F. [D-AL-7] | D | AL | 1994-08-17 | 0 |
| 103-hr-4541,R000178 | African Conflict Resolution Act 103-hr-4541 | R000178 | Rep. Reynolds, Mel [D-IL-2] | D | IL | 1994-08-17 | 0 |
| 103-hr-4541,C000494 | African Conflict Resolution Act 103-hr-4541 | C000494 | Rep. Clayton, Eva M. [D-NC-1] | D | NC | 1994-08-17 | 0 |
| 103-hr-4541,C000714 | African Conflict Resolution Act 103-hr-4541 | C000714 | Rep. Conyers, John, Jr. [D-MI-14] | D | MI | 1994-08-17 | 0 |
| 103-hr-4541,J000070 | African Conflict Resolution Act 103-hr-4541 | J000070 | Rep. Jefferson, William J. [D-LA-2] | D | LA | 1994-08-17 | 0 |
| 103-hr-4541,H000074 | African Conflict Resolution Act 103-hr-4541 | H000074 | Rep. Hall, Tony P. [D-OH-3] | D | OH | 1994-08-17 | 0 |
| 103-hr-4541,W000099 | African Conflict Resolution Act 103-hr-4541 | W000099 | Rep. Walsh, James T. [R-NY-25] | R | NY | 1994-08-17 | 0 |
| 103-hr-4541,K000262 | African Conflict Resolution Act 103-hr-4541 | K000262 | Rep. Klein, Herbert C. [D-NJ-8] | D | NJ | 1994-08-17 | 0 |
| 103-hr-4541,R000515 | African Conflict Resolution Act 103-hr-4541 | R000515 | Rep. Rush, Bobby L. [D-IL-1] | D | IL | 1994-08-17 | 0 |
| 103-hr-4541,L000169 | African Conflict Resolution Act 103-hr-4541 | L000169 | Rep. Leach, James A. [R-IA-1] | R | IA | 1994-08-17 | 0 |
| 103-hr-4541,F000434 | African Conflict Resolution Act 103-hr-4541 | F000434 | Rep. Furse, Elizabeth [D-OR-1] | D | OR | 1994-08-17 | 0 |
| 103-hr-4541,M000687 | African Conflict Resolution Act 103-hr-4541 | M000687 | Rep. Mfume, Kweisi [D-MD-7] | D | MD | 1994-08-17 | 0 |
| 103-hr-4541,B000619 | African Conflict Resolution Act 103-hr-4541 | B000619 | Rep. Bonior, David E. [D-MI-10] | D | MI | 1994-08-17 | 0 |
| 103-hr-4541,D000563 | African Conflict Resolution Act 103-hr-4541 | D000563 | Rep. Durbin, Richard J. [D-IL-20] | D | IL | 1994-08-17 | 0 |
| 103-hr-4541,W000207 | African Conflict Resolution Act 103-hr-4541 | W000207 | Rep. Watt, Melvin L. [D-NC-12] | D | NC | 1994-08-17 | 0 |
| 103-hr-4541,S001139 | African Conflict Resolution Act 103-hr-4541 | S001139 | Rep. Synar, Mike [D-OK-2] | D | OK | 1994-08-17 | 0 |
| 103-hr-4541,P000149 | African Conflict Resolution Act 103-hr-4541 | P000149 | Rep. Payne, Donald M. [D-NJ-10] | D | NJ | 1994-06-08 | 1 |
Advanced export
JSON shape: default, array, newline-delimited, object
CREATE TABLE legislation_cosponsors (
bill_id TEXT NOT NULL REFERENCES legislation(bill_id),
bioguide_id TEXT NOT NULL,
full_name TEXT,
party TEXT,
state TEXT,
sponsorship_date TEXT,
is_original_cosponsor INTEGER,
PRIMARY KEY (bill_id, bioguide_id)
);
CREATE INDEX idx_lc_bioguide ON legislation_cosponsors(bioguide_id);
CREATE INDEX idx_lc_bill ON legislation_cosponsors(bill_id);
CREATE INDEX idx_lc_original ON legislation_cosponsors(is_original_cosponsor);